{"data":{"norad_id":61523,"epoch":"2026-09-21T09:48:41.580576Z","epoch_age_seconds":113769,"freshness":"FRESH","line1":"1 61523U 24183Q   26264.40881459 -.00000801  00000+0 -12586-4 0  9990","line2":"2 61523  53.1599 311.5277 0001129  81.0076 279.1055 15.34390158109640","mean_motion":15.34390158,"eccentricity":0.0001129,"inclination_deg":53.1599,"raan_deg":311.5277,"arg_perigee_deg":81.0076,"mean_anomaly_deg":279.1055,"bstar":-1.2586e-5,"rev_number":10964,"period_min":93.848360046637,"perigee_km":461.96015869583,"apogee_km":463.50482702732,"semimajor_km":6840.8694928616,"source":"CELESTRAK","updated_at":"2026-09-22T09:00:49.357925Z"}}